User: anonymous   Login
Location: Étavigny
(49.1201°N, 2.9800°E)
Time: 03:27:40
(UTC+00:00)
Language:

DELTA 2 DEB (DPAF) - Orbit

View from above orbital plane
View from above orbital plane
View from above satellite
View from above satellite

Ground track
Ground track

The orbit data is extracted from the following two-line orbital elements,

1 29110U 06016D   24206.58627799  .00013252  00000-0  13428-2 0  9996
2 29110  98.4070  60.6926 0004060 119.6741 264.2579 14.91054811979320
Epoch (UTC): 24 July 2024 14:04:14
Eccentricity: 0.0004060
inclination: 98.4070°
perigee height: 592 km
apogee height: 597 km
right ascension of ascending node: 60.6926°
argument of perigee: 119.6741°
revolutions per day: 14.91054811
mean anomaly at epoch: 264.2579°
orbit number at epoch: 97932

The dashed part of the orbit path shows where the satellite is in the earth's shadow,  

DLR